Location: Newark
(34.9500°N, 139.9667°E)
Time: 12:19:30
(UTC+00:00)

Transit 4A - Pass Details

Date: 11 December 2019
Orbit: 871 x 973 km, 66.8° (Epoch: 20 January)

Event Time Altitude Azimuth Distance (km) Brightness Sun altitude
Rises 08:06:23 0° 234° (SW) 3,615 12.9 -7.8°
Reaches altitude 10° 08:09:16 10° 244° (WSW) 2,658 12.0 -8.3°
Maximum altitude 08:14:39 31° 305° (NW) 1,578 9.5 -9.4°
Drops below altitude 10° 08:19:58 10° 6° (N) 2,606 10.0 -10.4°
Sets 08:22:46 0° 17° (NNE) 3,534 10.6 -10.9°
